RH
20 36 41 43 65 59 48 38 22 19 18 28 28 32 36 36 40 83 79 71 66 74 74 68 46 46 72 77 67 60 61 69 73 74 59 53 62 80 86 78 61 29 11 11 9 10 9 9 11
37 38 39 43 53 57 48 24 19 27 23 18 23 22 34 46 54 73 67 71 65 73 70 72 48 45 61 88 91 80 82 75 84 91 51 49 59 72 67 44 18 12 12 10 11 10 9 11 15
38 42 44 52 61 44 30 21 24 20 18 18 17 17 29 36 52 54 74 70 72 75 69 70 60 86 74 88 93 86 89 82 68 51 48 36 34 31 20 13 12 12 11 12 11 10 10 14 24
46 41 33 43 45 35 19 20 20 20 17 18 17 18 17 21 37 57 42 43 60 76 73 69 61 88 86 85 91 89 93 93 43 40 33 24 15 14 13 13 12 11 10 12 11 11 13 23 62
49 41 49 39 31 23 20 18 18 20 19 18 16 18 15 14 23 30 24 27 48 79 81 69 70 79 84 88 87 88 92 93 53 40 46 23 11 12 14 12 10 10 10 10 12 45 20 44 84
46 37 49 46 34 21 18 21 20 23 20 20 18 18 15 14 17 34 26 36 39 60 85 81 67 68 79 88 84 87 91 88 65 55 62 34 11 12 12 11 10 12 12 12 81 70 35 74 81
50 58 55 42 41 28 22 23 27 29 30 26 25 33 25 22 27 37 33 23 39 42 64 88 74 71 61 90 81 84 90 86 77 63 75 47 10 11 11 11 11 27 19 24 93 47 40 72 80
50 58 49 42 33 30 27 27 27 28 31 28 28 36 30 24 31 29 30 29 31 35 75 72 86 73 66 83 87 83 85 87 84 79 84 55 11 10 10 11 25 52 28 24 85 22 35 56 73
54 70 67 47 36 36 31 37 31 32 33 32 32 30 29 29 27 29 30 28 28 32 46 73 90 81 74 60 91 91 78 86 92 87 89 55 12 11 10 12 79 74 40 20 28 20 31 47 71
60 81 61 36 38 41 38 39 39 40 40 38 37 35 34 32 32 32 33 33 32 31 33 73 75 88 81 65 96 99 80 94 100 86 82 42 14 12 11 14 94 77 50 33 15 27 35 56 69
54 72 49 43 36 39 43 43 40 42 48 40 40 38 37 37 36 35 34 35 34 34 27 54 76 86 86 76 98 100 86 93 100 90 79 32 17 16 14 19 88 61 86 62 24 31 43 71 73
55 46 45 44 39 43 46 41 45 45 43 37 40 39 40 39 37 35 36 37 36 36 38 27 73 89 87 83 86 100 94 95 99 91 73 27 20 21 20 23 28 39 48 36 30 32 60 77 75
48 46 41 43 48 47 44 50 50 45 40 35 37 38 37 36 37 36 35 36 37 40 48 41 41 87 90 90 82 100 99 94 98 88 67 26 27 25 31 32 27 30 34 32 41 38 68 80 77
46 50 54 49 48 48 49 50 45 38 27 34 33 33 33 33 34 35 37 38 39 38 40 43 37 79 90 95 90 97 97 92 99 86 53 28 40 36 41 39 28 29 38 44 65 70 65 82 80
55 70 62 58 54 58 43 51 51 25 31 30 26 28 29 32 32 34 34 34 38 41 41 41 36 46 76 93 98 99 91 90 97 82 42 41 57 56 44 32 28 28 41 54 71 77 82 76 71
63 64 74 41 52 43 40 56 41 28 30 29 27 25 26 26 28 28 32 33 37 42 44 44 39 55 73 98 100 100 100 89 94 77 45 50 69 64 43 31 36 43 53 59 71 72 74 70 65
73 75 71 52 42 52 48 54 41 34 31 31 28 26 25 26 27 29 30 33 37 40 45 46 54 54 62 98 98 91 100 98 92 70 50 61 68 60 52 47 51 64 60 64 71 72 74 68 66
78 65 53 48 30 36 51 57 42 32 30 31 29 25 29 32 30 32 32 37 40 43 46 48 56 61 82 98 90 79 100 98 95 69 58 61 58 55 69 68 60 59 60 63 68 73 74 69 67
55 46 46 40 33 38 47 47 38 31 34 35 25 32 34 38 36 32 33 36 42 42 54 58 59 60 94 94 80 84 94 100 87 79 69 62 54 59 66 57 53 52 54 59 68 72 76 72 73
44 48 51 45 38 42 44 43 35 36 37 25 29 37 38 41 41 42 41 41 44 46 53 54 56 62 98 78 82 76 79 93 91 75 69 62 54 55 52 47 47 49 54 61 65 69 78 77 77
47 54 52 49 43 43 45 54 41 30 26 36 39 40 39 42 50 57 47 47 46 52 54 64 61 68 83 75 80 82 73 77 84 84 60 59 56 52 47 42 39 40 46 50 55 62 72 82 83
58 42 43 51 57 64 51 86 55 40 37 44 41 37 32 32 34 55 54 48 54 55 67 57 72 87 77 70 57 61 58 64 78 79 69 61 60 55 53 45 40 35 34 38 41 50 61 66 79
48 45 52 55 62 67 64 84 62 38 49 48 49 30 28 30 32 36 60 55 53 68 73 86 90 98 97 66 70 62 66 73 83 96 75 67 65 59 56 48 42 36 30 29 34 48 60 53 48
42 50 55 57 70 94 70 72 62 44 45 49 41 33 34 35 36 36 38 56 57 69 90 92 91 99 99 89 84 90 83 80 93 100 94 67 64 59 52 50 41 34 32 29 28 30 38 41 46
50 68 90 91 93 93 59 66 53 40 43 39 40 40 35 34 40 40 39 39 52 68 78 78 78 89 100 100 92 91 96 84 82 96 88 84 62 59 54 50 44 37 31 29 28 31 33 34 42
60 64 83 90 92 77 50 65 56 42 40 39 39 42 43 41 40 42 42 41 43 56 77 79 77 77 94 98 93 97 90 91 92 88 76 75 78 58 49 42 40 38 34 33 31 30 31 33 37
47 67 57 72 60 79 64 44 46 45 46 44 45 48 48 47 46 48 42 46 47 56 55 78 84 84 84 96 99 96 96 96 98 89 80 92 74 74 64 54 44 44 41 38 34 31 32 38 45
51 48 70 78 78 80 69 58 79 62 57 46 49 51 48 46 47 46 45 49 56 66 72 79 83 82 83 94 99 98 100 99 99 89 90 95 87 74 67 69 56 48 51 48 41 39 40 43 49
50 68 57 63 61 73 78 66 62 60 53 51 49 48 46 45 47 48 45 48 58 67 83 94 80 86 91 89 99 100 98 94 94 95 96 92 85 81 70 57 68 59 53 54 50 48 46 49 51
38 47 46 65 84 62 59 77 51 56 55 51 48 47 46 44 46 49 47 48 52 74 75 88 98 79 87 94 96 99 100 100 98 98 98 98 90 80 71 63 54 56 53 48 48 46 45 45 45
Wind_Speed
2 5 9 1 3 4 3 7 4 9 9 5 7 7 2 2 4 3 6 6 8 7 5 12 22 23 21 19 19 19 19 18 17 16 15 14 14 15 14 12 9 6 5 7 8 9 11 11 14
6 8 3 1 4 2 5 5 3 4 8 11 11 11 11 3 13 8 6 10 8 6 7 7 20 24 22 20 19 19 20 20 18 16 15 15 15 15 13 11 9 7 8 9 10 11 13 16 19
6 4 1 3 3 5 5 3 2 5 14 13 7 8 4 3 12 5 7 6 6 7 8 5 19 21 24 23 21 20 20 21 20 16 15 14 14 14 12 11 9 9 10 11 11 13 15 18 25
5 1 3 3 5 7 5 1 3 4 10 13 13 4 2 5 3 4 3 6 1 9 10 9 13 22 22 23 25 22 22 22 16 16 15 13 13 12 12 11 10 11 11 12 13 15 17 26 29
2 2 1 2 6 6 3 2 8 4 6 12 12 4 12 13 7 6 10 10 1 6 15 11 11 22 23 24 24 24 24 21 16 17 15 12 13 13 13 12 12 12 13 13 15 18 24 29 29
2 1 2 3 5 4 3 9 5 5 7 11 10 9 11 14 15 6 11 13 4 7 15 17 14 14 25 24 24 26 25 22 17 18 15 13 13 12 13 14 14 14 15 15 19 19 27 32 28
1 3 3 4 6 6 1 3 4 3 4 7 12 3 9 9 9 4 7 16 11 8 14 20 17 15 26 27 25 25 26 23 19 19 16 14 13 13 15 15 15 16 17 18 20 19 27 30 27
3 3 3 4 4 5 4 4 1 2 6 13 12 4 4 12 11 13 19 14 20 11 14 19 24 20 21 30 30 28 26 24 21 20 18 15 14 14 16 16 17 19 18 19 21 19 26 28 27
1 3 3 4 3 6 11 6 6 11 11 16 14 21 25 26 26 29 27 25 24 18 16 21 26 26 22 32 33 32 28 26 24 21 20 17 16 17 18 19 21 21 20 20 20 21 25 27 26
3 2 5 2 3 4 8 9 15 11 17 24 25 27 25 26 27 28 27 27 24 23 17 25 27 30 28 32 35 35 32 29 28 24 22 19 18 18 19 20 22 22 21 20 19 24 27 29 27
4 5 3 7 8 10 10 12 14 9 11 25 20 24 23 21 22 24 24 24 25 23 22 19 29 32 31 33 37 38 36 32 30 25 23 21 21 22 22 23 24 23 22 21 23 26 29 29 26
4 12 14 8 17 17 7 15 12 19 31 35 34 34 31 28 28 27 25 24 23 22 22 23 27 32 34 34 40 41 40 37 34 29 25 24 25 25 25 24 24 23 25 22 23 27 30 27 24
7 4 12 19 21 24 24 16 11 28 34 31 29 26 27 25 27 27 26 28 29 25 22 26 24 33 36 39 42 45 44 40 36 32 28 29 27 27 25 24 24 25 23 24 25 28 31 25 23
5 13 15 21 26 14 8 8 6 22 21 22 22 25 26 27 26 25 24 26 27 28 31 26 27 28 35 40 43 46 45 43 39 34 32 32 29 27 27 26 27 26 24 27 25 25 26 22 20
11 10 9 12 9 8 7 8 9 21 16 14 24 25 27 28 27 27 26 25 25 28 28 32 31 24 36 41 47 44 47 47 42 37 35 35 31 27 27 28 29 28 25 29 25 24 22 22 20
4 1 4 5 6 4 7 10 7 10 18 24 28 26 25 24 31 31 28 25 24 26 28 27 27 24 27 37 31 38 51 52 46 40 41 35 34 30 29 30 30 29 26 30 26 25 27 25 24
3 4 6 7 7 5 6 9 7 12 19 21 27 19 14 18 18 24 26 24 21 19 25 26 24 26 28 37 20 12 24 49 50 43 44 38 37 33 31 31 31 29 29 28 28 29 28 28 25
5 4 6 8 2 2 9 15 20 19 18 23 16 11 10 14 14 12 17 18 16 16 20 23 25 25 30 38 27 34 21 26 37 45 44 41 38 36 34 32 32 33 33 32 31 31 28 28 27
6 5 7 8 10 6 9 11 17 17 12 13 4 5 11 12 11 8 14 17 19 19 20 21 24 26 27 18 11 16 13 22 35 41 42 41 38 38 38 35 35 35 35 35 34 34 32 30 30
6 7 10 7 9 4 7 15 19 13 6 5 5 8 11 15 13 7 8 14 16 19 21 21 22 25 28 14 18 23 19 11 24 20 33 37 37 37 37 37 36 37 37 37 37 36 36 34 33
7 7 6 9 4 4 3 8 5 3 5 20 15 15 12 12 13 17 9 15 15 18 20 19 20 25 22 20 24 28 19 19 17 18 24 33 34 36 39 38 36 36 38 38 38 37 39 39 36
7 8 9 4 4 3 5 5 7 7 7 7 17 13 16 17 18 14 16 10 16 14 16 16 18 27 26 20 17 19 20 28 39 9 26 29 35 34 36 36 35 35 37 38 38 38 40 39 39
7 0 3 3 3 3 3 2 7 5 7 6 8 18 21 21 21 22 13 18 9 13 15 11 15 23 32 20 16 26 32 34 31 33 35 29 30 33 34 34 33 33 35 36 37 39 40 38 36
4 4 6 2 3 1 8 7 5 5 9 6 6 20 26 26 26 23 23 17 15 10 12 7 10 21 29 29 16 19 31 37 36 33 34 33 32 32 34 35 34 34 35 36 36 38 39 38 35
2 3 3 3 1 6 3 5 6 5 9 14 11 19 24 25 25 25 23 22 18 15 12 12 11 18 25 31 25 22 28 27 30 39 40 38 37 37 35 34 34 35 34 35 36 38 38 36 34
5 5 3 3 3 3 3 4 3 13 14 21 23 23 24 25 26 27 28 20 19 18 14 15 15 18 21 28 24 27 27 33 31 37 40 38 40 37 36 35 34 34 34 34 34 36 36 35 33
4 3 4 3 4 1 4 0 4 8 9 11 16 22 23 25 27 29 32 29 19 21 11 14 17 17 21 31 28 30 30 37 36 35 33 29 33 36 35 35 35 34 34 33 34 34 35 35 33
5 1 3 2 3 4 5 5 7 6 9 9 11 15 21 24 27 30 34 34 24 22 9 7 11 17 17 27 32 34 35 32 29 30 37 27 22 24 33 34 35 35 34 34 34 34 34 34 34
4 4 3 2 2 3 3 4 7 12 9 9 8 15 18 22 26 30 34 35 33 21 15 8 11 13 17 17 27 30 33 32 30 32 31 35 29 25 32 35 37 36 35 35 34 34 35 34 33
13 8 2 2 4 2 2 3 9 14 11 12 10 16 14 22 26 29 33 36 38 29 23 16 13 12 14 15 20 25 28 31 34 34 33 33 31 29 30 33 33 36 36 35 33 33 33 33 33
Wind_Direction
102 118 123 107 74 74 245 255 239 322 354 88 80 62 170 13 337 124 40 6 307 237 246 210 192 182 171 171 170 167 164 163 168 177 171 166 169 172 175 179 190 198 176 155 144 144 139 135 129
101 111 121 180 98 118 262 251 58 120 18 2 57 20 35 118 65 80 61 37 290 225 272 250 193 182 174 171 177 171 169 170 173 181 171 174 176 183 186 190 187 173 155 150 144 135 128 122 120
85 56 338 126 164 187 215 40 78 3 37 27 33 26 25 60 75 91 72 46 359 279 282 280 200 180 179 177 183 178 187 186 192 178 176 182 188 189 187 181 173 158 152 143 136 132 127 122 124
63 152 234 104 244 265 277 305 70 19 16 12 5 6 351 360 49 112 345 330 87 276 254 271 233 185 186 185 185 190 193 198 186 177 180 187 192 187 180 173 165 156 148 144 139 135 130 129 130
292 250 44 210 245 259 314 205 67 43 4 335 345 293 313 313 311 299 299 292 59 282 240 249 278 198 191 195 189 194 198 202 196 180 183 191 191 186 178 169 163 158 150 147 144 134 129 133 132
331 148 51 242 252 287 356 63 74 50 4 329 326 309 282 281 282 288 287 296 312 234 243 238 263 234 194 200 200 196 201 205 200 189 189 195 195 188 178 169 164 161 154 147 138 139 135 137 135
89 77 230 270 267 307 15 56 77 75 336 305 308 341 282 269 256 298 296 275 278 239 241 230 242 250 204 202 205 205 204 206 202 197 198 201 198 190 180 172 166 161 154 147 145 144 141 141 138
18 91 282 254 256 270 41 10 330 257 265 285 279 259 271 262 275 274 305 272 277 261 234 238 224 235 221 207 209 210 209 208 203 202 205 206 200 193 184 174 167 160 158 154 149 146 144 144 139
14 57 256 259 358 282 335 12 308 314 295 296 281 266 272 273 273 282 289 284 281 273 245 237 228 233 228 215 210 213 210 211 205 206 209 209 201 194 187 177 161 161 161 160 158 149 147 144 142
114 167 237 161 297 299 314 321 312 316 299 283 281 275 273 273 271 274 280 279 278 275 244 232 234 229 226 218 213 211 208 211 210 209 209 206 201 194 188 179 167 164 160 160 157 147 145 141 136
202 213 261 301 307 320 305 300 299 290 282 268 264 276 277 277 278 269 264 267 271 278 248 244 237 227 226 223 212 209 208 211 212 210 209 204 196 191 186 180 173 168 162 162 152 148 146 142 138
255 246 253 264 289 300 284 295 287 265 260 276 275 277 279 278 276 273 267 263 266 268 256 251 235 231 226 230 218 211 208 211 210 208 206 203 195 191 187 187 181 173 171 162 155 150 147 142 143
247 262 277 289 291 293 288 266 254 276 281 287 284 277 275 275 269 267 264 263 258 256 253 258 249 230 226 227 220 217 210 213 212 210 204 202 198 193 190 189 185 179 173 160 153 150 152 145 145
271 291 283 285 279 263 248 260 220 271 291 292 287 275 269 268 271 266 261 261 257 255 250 254 247 237 231 226 220 220 217 214 213 209 203 202 201 198 194 191 186 181 169 160 157 157 154 154 155
294 297 301 265 244 220 202 294 222 270 295 288 312 297 279 264 262 252 262 262 258 255 253 246 245 248 234 233 216 220 220 216 216 207 200 198 201 202 202 193 184 181 168 164 162 159 165 163 171
262 197 309 283 188 202 134 275 223 253 293 287 300 300 296 289 268 257 255 256 254 255 251 250 241 246 237 228 216 201 215 218 216 203 195 194 200 207 198 188 182 178 168 170 168 171 168 172 170
247 238 216 301 193 156 190 267 261 275 281 287 295 301 316 307 291 264 248 243 250 255 249 238 240 246 236 220 222 351 221 204 211 199 196 195 199 203 194 188 180 179 175 174 175 172 178 170 171
203 232 283 263 275 259 247 258 277 284 289 286 296 328 331 339 295 277 246 243 239 234 246 239 238 240 236 227 250 285 269 183 187 196 195 198 198 193 193 192 189 185 181 180 180 175 178 177 173
301 245 248 268 272 248 252 263 276 284 274 290 316 18 3 355 354 283 253 242 225 233 228 233 239 239 224 206 240 222 227 195 184 188 193 196 195 195 197 195 192 188 184 180 180 180 178 178 179
266 289 279 289 273 202 279 279 282 273 238 213 102 61 29 12 4 354 245 230 238 238 233 237 238 237 215 208 191 194 217 148 177 197 196 199 197 198 199 197 194 191 186 185 186 188 178 182 188
246 228 249 254 306 278 305 299 323 7 145 95 97 72 44 16 6 8 320 250 246 247 249 242 230 222 208 200 186 162 173 220 196 192 209 202 201 200 201 200 198 194 194 191 191 192 187 186 192
257 233 239 275 25 238 83 279 290 218 108 96 89 71 40 28 26 15 6 308 253 261 261 249 225 207 190 189 214 199 207 210 195 245 216 206 207 202 202 203 200 198 196 194 192 190 194 196 196
245 6 261 242 246 350 276 139 266 127 138 127 93 68 47 40 32 28 15 1 308 269 264 255 222 220 204 205 214 215 197 195 204 221 195 206 207 205 204 205 202 199 198 196 195 195 201 206 208
304 332 297 186 140 291 227 175 276 168 162 131 87 63 51 42 33 31 31 13 351 309 280 280 244 228 214 209 218 221 208 205 222 215 193 208 212 205 206 206 204 203 202 199 201 203 206 209 213
121 51 313 8 163 232 288 126 247 26 121 115 94 65 51 37 27 22 16 19 8 331 293 281 254 233 229 213 216 215 214 210 224 208 202 203 211 205 206 207 205 205 205 204 203 204 209 211 213
214 182 178 273 219 262 276 235 286 119 97 92 82 71 53 37 26 24 19 9 13 2 306 276 264 244 243 216 220 215 217 210 216 211 210 210 212 210 207 206 206 207 206 206 206 207 211 212 213
304 226 225 218 265 95 230 243 31 117 88 69 73 65 48 32 25 20 17 13 4 2 321 283 258 257 244 235 231 227 218 217 231 219 207 219 218 217 214 212 208 209 210 209 210 210 210 210 211
218 327 353 247 245 244 256 220 173 120 79 58 53 56 45 29 22 18 16 13 6 9 348 313 281 257 260 243 243 249 241 232 234 224 219 216 225 228 226 218 214 210 211 212 211 210 210 211 211
346 310 261 326 252 213 292 311 103 98 73 52 39 40 42 32 21 16 14 13 10 8 14 337 329 285 259 260 245 246 253 224 230 226 229 232 240 235 225 223 219 213 212 213 214 213 212 211 213
260 287 310 304 305 272 56 321 91 86 71 50 43 25 34 33 21 17 12 9 10 6 9 9 323 315 288 269 254 244 252 245 229 228 230 230 231 229 225 220 220 220 217 217 216 215 213 212 211